Terminal Aerodrome Forecast
Issued by NWS

Home | Current Version | Previous Version | Text Only | Print | Product List | Glossary On
Versions: 1 2 3 4 5 6 7 8 9 10 11 12 13 14 15 16 17 18 19 20 21 22 23 24 25 26 27 28 29 30 31 32 33 34 35 36 37 38 39 40 41
000
FTAK31 PANC 270541
TAFAVD
TAF
PAVD 270541Z 2706/2806 VRB04KT P6SM SCT035 BKN050
     FM271200 05003KT P6SM BKN035
     FM272000 24006KT P6SM -RA OVC035
     FM280200 VRB03KT 5SM -RA BR OVC020
      AMD LTD TO CLD VIS AND WIND=

USA.gov is the U.S. government's official web portal to all federal, state and local government web resources and services.